This is the latest recevied weather packets stored in our database for station/object DH9NFM-12. If no packets are shown the sender has not sent any weather packets the latest 10 day(s).
| Time | Temp. | Humidity | Pressure | Rain* | Wind** | Luminosity | Snow |
|---|---|---|---|---|---|---|---|
| 1777724569 | 20.56° C | 43% | 1019.8 hPa | 0 mm | - | - | - |
| 1777723944 | 20.56° C | 42% | 1019.9 hPa | 0 mm | - | - | - |
| 1777723319 | 20.56° C | 45% | 1020 hPa | 0 mm | - | - | - |
| 1777722695 | 20.56° C | 45% | 1020.1 hPa | 0 mm | - | - | - |
| 1777722070 | 20° C | 45% | 1020.3 hPa | 0 mm | - | - | - |
| 1777721445 | 20° C | 44% | 1020.4 hPa | 0 mm | - | - | - |
| 1777720821 | 20° C | 47% | 1020.6 hPa | 0 mm | - | - | - |
| 1777720196 | 20° C | 49% | 1020.7 hPa | 0 mm | - | - | - |
| 1777719571 | 19.44° C | 49% | 1020.7 hPa | 0 mm | - | - | - |
| 1777718947 | 18.89° C | 49% | 1020.9 hPa | 0 mm | - | - | - |
| 1777718322 | 18.33° C | 50% | 1020.9 hPa | 0 mm | - | - | - |
| 1777717698 | 18.33° C | 48% | 1020.9 hPa | 0 mm | - | - | - |
| 1777717073 | 17.78° C | 49% | 1021.2 hPa | 0 mm | - | - | - |
| 1777716448 | 17.78° C | 49% | 1021.2 hPa | 0 mm | - | - | - |
| 1777715824 | 17.22° C | 49% | 1021.2 hPa | 0 mm | - | - | - |
| 1777715199 | 17.78° C | 46% | 1021.3 hPa | 0 mm | - | - | - |
| 1777714574 | 17.22° C | 51% | 1021.5 hPa | 0 mm | - | - | - |
| 1777713950 | 17.22° C | 51% | 1021.7 hPa | 0 mm | - | - | - |
| 1777713325 | 16.67° C | 52% | 1021.7 hPa | 0 mm | - | - | - |
| 1777712700 | 16.67° C | 55% | 1021.8 hPa | 0 mm | - | - | - |
| 1777712076 | 16.11° C | 54% | 1021.9 hPa | 0 mm | - | - | - |
| 1777711451 | 16.11° C | 54% | 1021.9 hPa | 0 mm | - | - | - |
| 1777710826 | 16.11° C | 53% | 1022 hPa | 0 mm | - | - | - |
| 1777710202 | 15.56° C | 56% | 1022 hPa | 0 mm | - | - | - |
| 1777709577 | 15.56° C | 56% | 1022 hPa | 0 mm | - | - | - |
* Rain latest hour (hover to see other rain measurements)
** Current wind speed in m/s (hover to see current wind gust speed)